Tracking 19170 objects as of 23-May-2018
HD Live streaming from Space Station
objects crossing your sky now

MOZ.5/SAFIR/RUBIN 5/SL-8

Track MOZ.5/SAFIR/RUBIN 5/SL-8 now!
10-day predictions
MOZ.5/SAFIR/RUBIN 5/SL-8 is classified as:


NORAD ID: 28898
Int'l Code: 2005-043G
Perigee: 685.7 km
Apogee: 713.1 km
Inclination: 98.0 °
Period: 98.6 minutes
Semi major axis: 7070 km
RCS: 6.834 m2 (large)
Launch date: October 27, 2005
Source: Germany (GER)
Launch site: PLESETSK MISSILE AND SPACE COMPLEX (PKMTR)
Uplink (MHz):
Downlink (MHz): 435.325
Beacon (MHz):
Mode:
Call sign:
Status:

aabbcc
Your satellite tracking list
Your tracking list is empty




NASA's NSSDC Master Catalog

Two Line Element Set (TLE):
1 28898U 05043G   18142.92747024 +.00000096 +00000-0 +29269-4 0  9995
2 28898 097.9745 283.8654 0019406 197.3003 162.7539 14.60274070292789
Source of the keplerian elements: AFSPC